星链-34155 (STARLINK-34155)

导读

STARLINK-34155是美国SpaceX公司星链(Starlink)星座的组网卫星,于2025年5月14日发射入轨。星链是全球规模最大的低轨卫星互联网星座,旨在为全球尤其是偏远地区提供高速低延迟宽带服务。 该卫星采用平板设计,配备霍尔推进器和太阳能电池阵,具备自主轨道控制与末端离轨能力,将在近地轨道完成组网,进一步完善星链星座的全球覆盖能力,支撑星链通信服务的稳定运行。

Basic Information
目录编号:
64019
目录名称:
STARLINK-34155
国际标识:
2025-101AB
轨道中心:
EARTH
卫星名称:
星链-34155
卫星全名:
星链-34155 (STARLINK-34155)
卫星状态:
在轨 (已飞行479 天)
发射日期:
2025-05-14 UTC
国别 :
美国 (US)
星等 :
--
Orbit Information
数据来源 国际轨道数据 AOE轨道数据
星历时间 2026-09-05T04:21:24+0800
15小时前
查看轨道信息
2026-09-01T09:00:00+0800
4天前
查看轨道信息
半长轴 6861.152km 6861.251km
偏心率 0.0001493 0.0000159
轨道倾角 43.000° 43.000°
近地点辐角 278.117° 4.984°
升交点赤经 66.293° 87.796°
平近点角 81.951° 277.322°
近地点 481.99km 483.004km
远地点 484.04km 483.224km
周期 94.266分钟 94.268分钟
每日圈数 15.275914 15.275584
Detailed Information
固有亮度:
5
最大亮度:
2.5
卫星平台:
Starlink V1.0
覆盖范围:
全球
运营商:
太空探索技术公司
运营商所在国:
美国
制造商(研发单位):
太空探索技术公司
制造商所在国:
美国
使用方式:
暂无
Satellite Introduction
Starlink 计划是 SpaceX 推出的全球卫星互联网项目,通过发射低轨道卫星,为全球尤其是偏远地区提供高速、低延迟的互联网服务。自 2019 年起,Starlink 已部署数千颗卫星,旨在缩小全球数字鸿沟,推动互联网普及。该项目还为军事、航空等行业提供通信支持,带来广泛经济效益。
2D Orbit Map
3D Orbit Map
Orbit Altitude Analysis Chart
Orbit Inclination Analysis Chart
Orbit Comprehensive Analysis Chart
View Comprehensive Chart